Flag for Italy Weather past 2 weeks in Venice, Italy

Now
79 °F

Clear.


Feels Like: 82 °F
Forecast: 73 / 90 °F
Wind: 6 mph from South

Location: Venice / Tessera

Current Time: Aug 5, 2015 at 12:00:58 AM

Latest Report: Aug 4, 2015 at 11:20 PM


Visibility: 10 mi

Pressure: 29.92 "Hg

Humidity: 84%

Dew point: 73 °F

Location of VeniceLocation

Historic Weather in Venice — Graph

°F

Venice temperature yesterday

Maximum temperature yesterday: 88 °F (at 2:20 PM)
Minimum temperature yesterday: 72 °F (at 4:50 AM)
Average temperature yesterday: 81 °F

Past Weeks' High & Low Weather Summary

 TemperatureHumidityPressure
High95 °F (Jul 21, 4:20 PM)94% (Jul 21, 2:50 AM)30.04 "Hg (Jul 21, 2:50 AM)
Low63 °F (Aug 1, 5:50 AM)39% (Jul 23, 2:50 PM)29.65 "Hg (Jul 27, 3:20 PM)
Average79 °F65%29.84 "Hg
* Reported Jul 20 10:20 PM — Aug 4 10:50 PM, Venice, Weather by CustomWeather, © 2015

Note: Actual official high and low records may vary slightly from our data, if they occured in-between our weather recording intervals... More about our weather records

Advertising

Venice weather history for previous 24 hours

 ConditionsComfort  
Time TempWeatherWind HumidityBarometerVisibility
10:50 PM
Tue, Aug 4
82 °FClear.5 mph79%29.92 "Hg10 mi
10:20 PM82 °FClear.2 mph74%29.92 "Hg10 mi
9:50 PM81 °FClear.1 mph79%29.92 "Hg10 mi
9:20 PM82 °FSunny.2 mph74%29.89 "Hg10 mi
8:50 PM82 °FSunny.3 mph74%29.89 "Hg10 mi
8:20 PM82 °FSunny.3 mph70%29.89 "Hg10 mi
7:50 PM84 °FPassing clouds.3 mph70%29.89 "HgN/A
7:20 PM84 °FPassing clouds.3 mph66%29.89 "HgN/A
6:50 PM86 °FSunny.5 mph62%29.89 "Hg10 mi
6:20 PM88 °FPassing clouds.5 mph55%29.89 "HgN/A
5:50 PM88 °FPassing clouds.5 mph52%29.89 "HgN/A
5:20 PM88 °FPassing clouds.5 mph55%29.89 "HgN/A
4:50 PM88 °FPassing clouds.8 mph55%29.92 "HgN/A
4:20 PM86 °FSunny.10 mph66%29.92 "Hg10 mi
3:50 PM88 °FSunny.8 mph49%29.92 "Hg10 mi
3:20 PM86 °FSunny.8 mph55%29.92 "Hg10 mi
2:50 PM88 °FPassing clouds.7 mph49%29.92 "HgN/A
2:20 PM88 °FSunny.5 mph52%29.92 "Hg10 mi
1:50 PM86 °FPassing clouds.6 mph52%29.92 "HgN/A
1:20 PM86 °FPassing clouds.6 mph52%29.95 "HgN/A
12:50 PM84 °FPassing clouds.7 mph55%29.95 "HgN/A
12:20 PM84 °FPassing clouds.8 mph55%29.95 "HgN/A
11:50 AM84 °FPassing clouds.7 mph55%29.95 "HgN/A
11:20 AM84 °FPassing clouds.7 mph51%29.95 "HgN/A
10:50 AM82 °FPassing clouds.7 mph55%29.95 "HgN/A
10:20 AM82 °FPassing clouds.8 mph55%29.95 "HgN/A
9:50 AM81 °FPassing clouds.7 mph62%29.95 "HgN/A
9:20 AM79 °FSunny.7 mph65%29.95 "Hg10 mi
8:50 AM77 °FPassing clouds.7 mph69%29.95 "HgN/A
8:20 AM77 °FSunny.7 mph69%29.95 "Hg10 mi
7:50 AM75 °FPassing clouds.8 mph74%29.95 "HgN/A
7:20 AM77 °FSunny.8 mph69%29.95 "Hg10 mi
6:50 AM75 °FClear.7 mph74%29.95 "Hg10 mi
6:20 AM73 °FPassing clouds.3 mph78%29.95 "HgN/A
5:50 AM72 °FPassing clouds.3 mph83%29.95 "HgN/A
5:20 AM72 °FClear.6 mph83%29.95 "Hg10 mi
4:50 AM72 °FPassing clouds.7 mph83%29.95 "HgN/A
4:20 AM73 °FPassing clouds.9 mph78%29.98 "HgN/A
3:50 AM73 °FPassing clouds.8 mph78%29.98 "HgN/A
3:20 AM73 °FClear.9 mph78%29.98 "Hg10 mi
2:50 AM73 °FPassing clouds.8 mph78%29.98 "HgN/A
2:20 AM73 °FPassing clouds.8 mph83%29.98 "HgN/A
1:50 AM73 °FPassing clouds.8 mph83%29.98 "HgN/A
1:20 AM75 °FPassing clouds.7 mph78%29.98 "HgN/A
12:50 AM77 °FClear.9 mph74%30.01 "Hg10 mi
12:20 AM75 °FPassing clouds.8 mph78%29.98 "HgN/A
Weather by CustomWeather, © 2015

See weather overviewHow to use our weather pages